Location: Castle Hill Houses
(40.8186°N, 73.8497°W)
Time: 16:37:33
(UTC+00:00)

Cosmos 1371 Rocket - Pass Details

Date: 26 January 2020
Orbit: 753 x 790 km, 74.0° (Epoch: 25 February)

Event Time Altitude Azimuth Distance (km) Brightness Sun altitude
Rises 00:24:45 0° 198° (SSW) 3,190 7.5 -26.6°
Reaches altitude 10° 00:27:05 10° 198° (SSW) 2,270 6.6 -27.0°
Enters shadow 00:31:17 61° 200° (SSW) 859 4.2 -27.8°
